Regional Weather Roundup
Issued by NWS

Home | Current Version | Previous Version | Graphics & Text | Print | Product List | Glossary On
Versions: 1 2 3 4 5 6 7 8 9 10 11 12 13 14 15 16 17 18 19 20 21 22 23 24 25 26 27
000
ASUS45 KBOU 231107
RWRCO

WEATHER ROUNDUP FOR COLORADO
NATIONAL WEATHER SERVICE DENVER/BOULDER CO
500 AM MDT TUE AUG 23 2016

NOTE: "FAIR" INDICATES FEW OR NO CLOUDS BELOW 12000 FEET WITH NO
SIGNIFICANT WEATHER AND/OR OBSTRUCTIONS TO VISIBILITY.

COZ001>005-013-030-031-231200-
...NORTHWEST COLORADO...

CITY           SKY/WX    TMP DP  RH WIND       PRES   REMARKS
CRAIG          FAIR      45  40  82 CALM      30.18R
HAYDEN         FAIR      48  36  61 E7        30.19S
MEEKER         FAIR      45  39  79 NE6       30.20R
MOUNT WERNER   NOT AVBL
STEAMBOAT SPGS FAIR      44  37  79 CALM      30.21R
WALDEN         FAIR      39  32  75 SE6       30.26R
$$

COZ006>008-011-231200-
...WEST CENTRAL VALLEYS...

CITY           SKY/WX    TMP DP  RH WIND       PRES   REMARKS
GRAND JUNCTION FAIR      62  47  57 E9        30.12R
MONTROSE       FAIR      52  44  74 S6        30.20S
EAGLE          FAIR      52  45  76 CALM      30.24R
RIFLE          FAIR      54  48  80 CALM      30.17S
DELTA          NOT AVBL
NUCLA          FAIR      54  46  76 E9        30.24R
$$

COZ017>023-064>068-231200-
...SOUTHWEST COLORADO...

CITY           SKY/WX    TMP DP  RH WIND       PRES   REMARKS
DURANGO        FAIR      50  47  89 N3        30.23S
CORTEZ         FAIR      54  49  83 CALM      30.18S
PAGOSA SPRINGS FAIR      48  47  99 CALM      30.30S
TELLURIDE      CLOUDY    46  43  88 SE6       30.39S
WOLF CREEK PAS MOCLDY    37  37 100 SW15      30.53S
$$

COZ009-010-012-014-032>034-037-058>063-231200-
...CENTRAL COLORADO...

CITY           SKY/WX    TMP DP  RH WIND       PRES   REMARKS
ASPEN          FAIR      48  42  80 S6        30.27F
BUENA VISTA    FAIR      39  34  82 CALM      30.26S
COPPER MTN     MOCLDY    45  34  65 NW10      30.51R
BERTHOUD PASS  FAIR      36  23  60 N25       30.51R
COTTONWOOD PAS FAIR      50  36  57 W5        30.35S
GUNNISON       CLOUDY    46  45  93 CALM      30.33S
KREMMLING      FAIR      36  32  87 CALM      30.27S
LEADVILLE      CLOUDY    40  35  83 NE3       30.37R
MONARCH PASS   FOG       36  36 100 SW16G26   30.58R VSB<1/4
SALIDA         FAIR      51  41  66 CALM      30.30R
SUNLIGHT       FAIR      45  39  81 NE6       30.46S
WILKERSON PASS NOT AVBL
$$

COZ069>075-231200-
...SAN LUIS VALLEY/SANGRE DE CRISTO MOUNTAINS...

CITY           SKY/WX    TMP DP  RH WIND       PRES   REMARKS
ALAMOSA        FAIR      44  41  89 N6        30.27R
LA VETA PASS   FAIR      43  37  81 S14G25    30.34F
SAGUACHE       FAIR      45  39  81 NW10      30.29S
$$

COZ035-036-038>040-231200-
...NORTHERN COLORADO FRONT RANGE...

CITY           SKY/WX    TMP DP  RH WIND       PRES   REMARKS
DENVER INTL AP FAIR      64  39  39 SW16      29.97R
DMNS CITY PARK   N/A     63  40  42 S5        29.98S
AURORA         PTCLDY    60  40  48 SW10      30.01R
FRONT RANGE AP NOT AVBL
ERIE MUNI ARPT FAIR      56  38  51 CALM      29.95R
BOULDER MUN AP FAIR      73  34  23 SW9       29.95S
CENTENNIAL     FAIR      65  37  35 SW10      30.02R
BROOMFIELD     FAIR      64  36  34 SE5       29.99S
FORT COLLINS   FAIR      55  41  58 CALM      29.95R
LONGMONT       FAIR      58  48  68 CALM      29.96R
$$

COZ041-046-047-076>085-087-088-231200-
...PIKES PEAK/PALMER DIVIDE AND SOUTHERN FOOTHILLS...

CITY           SKY/WX    TMP DP  RH WIND       PRES   REMARKS
COLO. SPRINGS  FAIR      59  40  49 N8        30.05S
A. F. ACADEMY  FAIR      56  39  51 NE8       30.07S
SCHRIEVER AFB  NOT AVBL
ELLICOTT       NOT AVBL
FALCON         FAIR      58  37  44 NW8       30.10S
FORT CARSON    MOCLDY    56  40  55 NW7       30.02R
LIMON          FAIR      50  38  63 N8        29.98S
MONUMENT HILL  FAIR      54  36  50 SW9       30.12R
TRINIDAD       FAIR      58  44  60 W10       30.06R
$$

COZ042>045-048>051-090-091-231200-
...NORTHEAST COLORADO...

CITY           SKY/WX    TMP DP  RH WIND       PRES   REMARKS
GREELEY ARPT   FAIR      52  45  76 CALM      29.94S
AKRON          FAIR      58  42  55 W9        29.92R
BURLINGTON     FAIR      59  51  75 W13       29.87F
WRAY           FAIR      57  57 100 CALM      29.85F
STERLING       FAIR      50  46  87 NW5       29.88S
HOLYOKE        FAIR      61  57  88 S5        29.86S
FORT MORGAN    FAIR      55  42  63 W7        29.93R
$$

COZ086-089-092>099-231200-
...SOUTHEAST COLORADO...

CITY           SKY/WX    TMP DP  RH WIND       PRES   REMARKS
PUEBLO         FAIR      67  42  40 W5        29.95S
LA JUNTA       FAIR      63  48  58 SW9       29.93R
LAMAR          FAIR      63  51  65 W8        29.88R
SPRINGFIELD      N/A     60  55  83 SW9       29.96F
$$




USA.gov is the U.S. government's official web portal to all federal, state and local government web resources and services.